Weather Roundup
Issued by NWS

Home | Current Version | Previous Version | Graphics & Text | Print | Product List | Glossary Off
Versions: 1 2 3 4 5 6 7 8 9 10 11 12 13 14 15 16 17 18 19 20 21 22 23 24 25 26 27 28 29 30 31 32 33 34 35 36 37 38 39 40 41 42 43 44 45 46 47 48 49 50

000
NZUS93 KARX 301359
HRRWXR

CURRENT HOURLY OBSERVATIONS ACROSS
MUCH OF THE UPPER MISSISSIPPI VALLEY
NATIONAL WEATHER SERVICE LA CROSSE WI
900 AM CDT THU JUL 30 2015


...SOUTHEAST MINNESOTA...


CITY           SKY/WX    TMP DP  RH WIND       PRES   REMARKS
ROCHESTER      SUNNY     70  60  70 W8        30.10S
ROCHESTER/MAYO FAIR      69  56  62 W10       30.08R
WINONA         SUNNY     73  59  60 NW3       30.05S
AUSTIN         SUNNY     73  55  53 W12       30.09S
ALBERT LEA     SUNNY     72  57  60 W6        30.10S
DODGE CENTER   SUNNY     70  57  64 W9        30.09R
PRESTON        SUNNY     70  57  63 W10       30.09S
OWATONNA       SUNNY     70  57  64 W5        30.09R
FARIBAULT      SUNNY     72  59  64 W5        30.08R
$$

...ELSEWHERE IN MINNESOTA...


CITY           SKY/WX    TMP DP  RH WIND       PRES   REMARKS
MINNEAPOLIS    SUNNY     74  55  51 W10       30.03F
INTNL FALLS    MOSUNNY   65  57  75 W7        29.92S
DULUTH         MOSUNNY   71  57  61 W14       29.96R
RED WING       SUNNY     73  57  56 W6        30.03S
REDWOOD FALLS  SUNNY     72  57  59 W12       30.09R
MANKATO        SUNNY     70  55  60 W10       30.08S
WORTHINGTON    SUNNY     72  55  56 W9        30.14R
FAIRMONT       SUNNY     72  57  60 CALM      30.11R
$$

...SOUTHWEST WISCONSIN...


CITY           SKY/WX    TMP DP  RH WIND       PRES   REMARKS
LA CROSSE      SUNNY     76  56  49 W7        30.05R
PRAIRIE DU CHI SUNNY     72  56  58 CALM      30.07S
BOSCOBEL       SUNNY     74  61  63 SW6       30.07R
LONE ROCK      NOT AVBL
PLATTEVILLE    SUNNY     69  63  79 W5        30.09S
FORT MC COY    SUNNY     71  55  58 W6        30.05R
VIROQUA        FAIR      70  58  65 W6        30.07S
WIS DELLS      SUNNY     73  54  52 W9        30.04S
$$

...ELSEWHERE IN WISCONSIN...


CITY           SKY/WX    TMP DP  RH WIND       PRES   REMARKS
MILWAUKEE      SUNNY     77  54  44 NW10      30.02R
MADISON        SUNNY     73  58  59 VRB6      30.04R
GREEN BAY      SUNNY     73  59  61 W12       29.96R
EAU CLAIRE     NOT AVBL
BLACK RVR FLS  FAIR      71  56  57 W8        30.02S
MEDFORD        SUNNY     67  58  72 W10       30.00S
WAUSAU         SUNNY     72  57  59 W16       29.97S
WIS RAPIDS     SUNNY     73  55  53 W12       30.02R
MARSHFIELD     SUNNY     72  57  59 W9        30.01R
RICE LAKE      SUNNY     67  58  71 W9        30.02S
$$

...NORTHEAST IOWA...


CITY           SKY/WX    TMP DP  RH WIND       PRES   REMARKS
DECORAH        SUNNY     68  61  77 VRB3      30.08S
MASON CITY     SUNNY     72  60  66 W7        30.12S
CHARLES CITY   SUNNY     68  63  83 W7        30.11S
OELWEIN        SUNNY     68  63  83 VRB6      30.11S
$$

...ELSEWHERE IN IOWA...


CITY           SKY/WX    TMP DP  RH WIND       PRES   REMARKS
DES MOINES     SUNNY     75  59  57 W8        30.15R
IOWA CITY      SUNNY     73  61  65 W9        30.13R
FORT DODGE     SUNNY     70  63  78 SW7       30.16R
$$

...NORTHERN ILLINOIS...


CITY           SKY/WX    TMP DP  RH WIND       PRES   REMARKS
CHICAGO-OHARE  SUNNY     75  59  57 W8        30.06R
CHICAGO-MIDWAY SUNNY     77  57  50 W8        30.06R
MOLINE         SUNNY     75  60  59 W10       30.11R
ROCKFORD       SUNNY     75  59  57 NW9       30.09R
PEORIA         SUNNY     77  61  57 NW7       30.12S
$$

NOTE: "FAIR" INDICATES FEW OR NO CLOUDS BELOW 12,000 FEET WITH NO
SIGNIFICANT WEATHER AND/OR OBSTRUCTIONS TO VISIBILITY. WIND
SPEEDS ARE IN MILES-PER-HOUR.



USA.gov is the U.S. government's official web portal to all federal, state and local government web resources and services.